Other Public Products
Issued by NWS Grand Forks, ND

Home | Current Version | Previous Version | Graphics & Text | Print | Product List | Glossary On
Versions: 1 2 3 4 5 6 7 8 9 10 11 12 13 14 15 16 17 18 19 20 21 22 23 24 25 26 27 28 29 30 31 32 33 34 35 36 37 38 39 40 41 42 43 44 45 46 47 48 49 50
961
FPUS83 KFGF 100810
OPUFGF
PRAIRIE TO PINES WEATHER ROUNDUP
NATIONAL WEATHER SERVICE EASTERN NORTH DAKOTA/GRAND FORKS ND
200 AM CST WED FEB 10 2016

 **SATELLITE DATA USED TO AUGMENT SKY COVER AT AUTOMATED STATIONS**
 *****  WEATHER ACROSS EASTERN NORTH DAKOTA  *****

CITY           SKY/WX    TMP DP  RH WIND       PRES   REMARKS
GRAND FORKS    CLOUDY     4  -4  69 E6        30.17F WCI  -7
GRAND FORKS AF CLOUDY     3  -4  72 E6        30.16F WCI  -8
GRAND CITY NWS NOT AVBL
BUXTON           N/A      4   0  83 NE5         N/A  WCI  -5
DEVILS LAKE    LGT SNOW   5   1  83 SE14      30.08S FOG     WCI -12
FARGO          CLOUDY     5  -2  72 CALM      30.16F
WAHPETON ARPT  CLOUDY     7   1  78 CALM      30.16F
$$

 *****  WEATHER ACROSS CENTRAL AND WESTERN NORTH DAKOTA  *****

CITY           SKY/WX    TMP DP  RH WIND       PRES   REMARKS
JAMESTOWN      LGT SNOW  11   6  81 SE9       30.05F WCI  -2
BISMARCK       CLOUDY    28  21  75 E9        29.96F WCI  19
MINOT          LGT SNOW  19  12  74 SE12      29.92F WCI   7
MINOT AFB      FLURRIES  17  15  92 SE14      29.92F WCI   3
GARRISON         N/A     22  19  89 SE13      29.91F WCI  10
WILLISTON      PTCLDY    27  23  85 S3        29.86F
DICKINSON      PTCLDY    31  25  78 W10       29.85F WCI  22
HETTINGER      CLOUDY    23  21  92 NW6       29.89F WCI  16
$$

 *****  OTHER OBSERVATIONS NORTHEAST NORTH DAKOTA  *****

CITY           SKY/WX    TMP DP  RH WIND       PRES   REMARKS
WALHALLA       FAIR       1  -2  85 SE8       30.16F WCI -12
LANGDON        CLOUDY     3  -2  78 E12       30.07F WCI -13
CAVALIER       FAIR       1  -6  71 E5        30.17F WCI  -8
GRAFTON        FAIR       1  -6  71 E6        30.19F WCI -10
CANDO          NOT AVBL
FORT TOTTEN      N/A      6   2  84 SE7       29.95S WCI  -6
ROLLA          LGT SNOW   5   1  85 SE12      30.03F WCI -11
RUGBY          LGT SNOW  10   9  92 SE15      30.01F WCI  -6
 ***** THE ABOVE OBSERVATIONS ARE NON NWS ARE NOT QUALITY
        CONTROLLED AND MAY MIS-REPORT RAIN FOR SNOW...
$$

 *****  OTHER OBSERVATIONS SOUTHEAST NORTH DAKOTA *****

CITY           SKY/WX    TMP DP  RH WIND       PRES   REMARKS
COOPERSTOWN    NOT AVBL
VALLEY CITY    LGT SNOW   7   3  85 E8        30.10F WCI  -6
OAKES          LGT SNOW  10   9  92 E9        30.09F WCI  -2
GWINNER        PTSUNNY   14   9  79 E9        30.11S WCI   2
BUFFALO          N/A      5  -1  77 E8          N/A  WCI  -8
WYNDMERE       NOT AVBL
 ***** THE ABOVE OBSERVATIONS ARE NON NWS ARE NOT QUALITY
       CONTROLLED AND MAY MIS-REPORT RAIN FOR SNOW...
$$

  *****  WEATHER ACROSS NORTHERN MINNESOTA  *****

CITY           SKY/WX    TMP DP  RH WIND       PRES   REMARKS
FLAG ISLAND    PTCLDY   -11 -17  77 CALM      30.15F
WARROAD        CLOUDY    -8 -13  77 NE5       30.15F WCI -19
ROSEAU         CLOUDY    -9 -17  70 CALM      30.16F
HALLOCK        CLOUDY    -2  -9  71 CALM      30.18F
THF RVR FALLS  CLOUDY    -2  -8  78 E5        30.15F WCI -12
HALSTAD        NOT AVBL
FOSSTON          N/A     -9 -15  77 CALM      30.13F
BAUDETTE       PTCLDY   -17 -22  78 CALM      30.13F
WASKISH        CLOUDY   -17 -20  83 CALM      30.12F
CROOKSTON      CLOUDY     1  -4  78 E3        30.17F
$$
  *****  WEATHER ACROSS CENTRAL AND WEST MINNESOTA  *****

CITY           SKY/WX    TMP DP  RH WIND       PRES   REMARKS
BEMIDJI        CLOUDY   -12 -15  84 CALM      30.11S
PARK RAPIDS    CLOUDY    -7 -12  79 W3        30.10R
WADENA         CLOUDY    -2  -8  78 CALM      30.11F
DETROIT LAKES  PTCLDY     1  -2  85 CALM      30.12S
MOORHEAD       CLOUDY     3  -2  78 E3        30.16F
FERGUS FALLS   CLOUDY     3  -2  78 E5        30.17F WCI  -6
ELBOW LAKE     CLOUDY     4  -2  76 NE3       30.12F
MORRIS MN      CLOUDY     7   1  78 NE3       30.12F
STAPLES        CLOUDY    -6  -9  84 CALM      30.11S
WHEATON        CLOUDY    10   3  72 NE3       30.16F
$$
  *****  WEATHER ELSEWHERE ACROSS MINNESOTA  *****

CITY           SKY/WX    TMP DP  RH WIND       PRES   REMARKS
DULUTH         CLOUDY    -6 -11  79 N9        30.04R WCI -23
INTRNTL FALLS  PTCLDY    -9 -14  78 N6        30.13S WCI -22
ELY            CLOUDY    -4  -9  77 N6        30.05R WCI -16
CLOQUET        PTCLDY    -6  -9  84 NW7       30.06S WCI -20
BRAINERD       CLOUDY    -2  -8  76 CALM      30.11F
HIBBING        PTCLDY   -11 -14  86 N8        30.07F WCI -28
ALEXANDRIA     CLOUDY     2  -4  76 NE6       30.11F WCI  -9
SAINT CLOUD    CLOUDY     2  -5  72 N5        30.12F WCI  -8
MINNEAPOLIS    PTCLDY     6  -4  63 N7        30.13F WCI  -6
$$

  *****  WEATHER ACROSS SOUTH DAKOTA  *****

CITY           SKY/WX    TMP DP  RH WIND       PRES   REMARKS
SIOUX FALLS    CLOUDY    21  12  68 SE7       30.08F WCI  12
BROOKINGS      PTCLDY    15  10  80 E6        30.06F WCI   6
WATERTOWN      CLOUDY    14   4  64 SE6       30.04F WCI   5
HURON          CLOUDY    25  19  78 SE8       30.04F WCI  16
SISSETON         N/A     11   5  77 E7        30.12S WCI   0
ABERDEEN       LGT SNOW  19  14  81 E9        30.06F WCI   8
MITCHELL       CLOUDY    27  20  75 SE7       30.05F WCI  19
PIERRE         CLEAR     26  22  84 E6        29.94F WCI  19
MOBRIDGE       CLOUDY    32  24  72 SE7       29.93F
RAPID CITY     CLOUDY    27  23  85 CALM      29.95F
$$

  *****  SOME WEATHER IN NEARBY STATES *****

CITY           SKY/WX    TMP DP  RH WIND       PRES   REMARKS
GLASGOW MT     CLEAR     35  28  75 W7        29.87F
GREAT FALLS MT CLOUDY    44  24  45 SW20      30.06S
CHEYENNE WY    CLOUDY    40  16  37 W18       30.17F
SCOTTSBLUFF NE CLEAR     32  24  72 N3        30.11F
OMAHA NE       CLOUDY    20  15  81 S7        30.16F WCI  11
DES MOINES IA  MOCLDY    15   7  70 N5        30.16S WCI   8
DAVENPORT IA   CLEAR      8   0  69 NW8       30.07F WCI  -4
CHICAGO IL     PTCLDY    13   3  64 NW17G26   29.95R WCI  -4
EAU CLAIRE WI  PTCLDY     2  -7  66 NW8       30.07F WCI -12
LA CROSSE WI   PTCLDY     4  -6  63 NW12      30.09S WCI -12
$$

  *****  SOME NATIONAL WEATHER *****

CITY           SKY/WX    TMP DP  RH WIND       PRES   REMARKS
LA GUARDIA NY  LGT SNOW  33  28  81 E5        29.58F FOG
RALEIGH NC     CLEAR     26  13  57 W3        29.84R
ATLANTA GA     FLURRIES  26  14  60 W14G21    30.01S WCI  14
NEW ORLEANS LA CLEAR     44  25  47 NW8       30.24R
OKLAHOMA CITY  CLEAR     28  20  71 SW3       30.29S
ALBUQUERQUE NM CLOUDY    40  22  48 N6        30.40R
SALT LAKE CITY MOCLDY    27  25  92 SW5       30.48F FOG     WCI  22
LOS ANGELES CA PTCLDY    67  39  35 CALM      30.11R
BOISE ID       PTCLDY    29  27  92 W5        30.45R FOG     WCI  24
SEATTLE WA     CLEAR     50  37  61 SW5       30.12R
$$

*** WEATHER ACROSS MANITOBA...SASKATCHEWAN AND ONTARIO ***
                ***ONTARIO***

CITY           SKY/WX    TMP DP  RH WIND       PRES   REMARKS
GERALDTON      PTCLDY   -13 -18  77 N10       29.98S WCI -32
THUNDER BAY    CLEAR     -9 -17  70 NW8       30.11S WCI -26
SIOUX LOOKOUT  CLEAR    -22 -27  76 N3        30.12S
TORONTO        FLURRIES  28  25  86 NW13      29.50R WCI  18
BIG TROUT LK   CLEAR    -26 -31  75 NW6       30.16S WCI -42
PICKLE LAKE    NOT AVBL
DRYDEN         CLEAR    -17 -20  83 N3        30.11S
KENORA         CLEAR    -13 -17  84 NE5       30.13F WCI -25
$$
                *** MANITOBA***

CITY           SKY/WX    TMP DP  RH WIND       PRES   REMARKS
BRANDON        LGT SNOW   5   1  85 E9        30.06F VSB 1   WCI  -9
DAUPHIN        LGT SNOW   5   1  85 SE9       30.09F WCI  -9
ISLAND LAKE    CLEAR    -29 -35  75 CALM      30.23S
PILOT MOUND      N/A      3   0  85 SE13        N/A  WCI -14
THE PAS        MOCLDY    -6 -11  77 E6        30.12F WCI -18
THOMPSON       FLURRIES -15 -20  76 CALM      30.23F
WINNIPEG       MOCLDY    -4 -11  71 E6        30.20F WCI -16
LYNN LAKE      LGT SNOW  -6 -11  77 SE5       30.11F WCI -17
CHURCHILL      CRYSTALS -29 -36  68 W7        30.28F WCI -48
GILLAM         CLEAR    -26 -31  75 NW6       30.26S WCI -42
$$
                ***SASKATCHEWAN***

CITY           SKY/WX    TMP DP  RH WIND       PRES   REMARKS
ESTEVAN        MOCLDY    19  16  86 SE10G18   29.85F WCI   8
KINDERSLEY     PTCLDY    30  25  80 NW9       29.89R WCI  22
LLOYDMINSTER   CLEAR     34  30  86 NW8       29.94R
PRINCE ALBERT  LGT SNOW  16  12  86 SE9       29.90S WCI   4
REGINA         NOT AVBL
YORKTON        LGT SNOW  10   9  92 SE15      29.92F WCI  -6
N. BATTLEFORD  CLEAR     23  23 100 NW5       29.91R FOC1F1C2F2C3F3C4F4C5F5C6F6C7F7C8F8C9F9CaFaCbFbCcFcCdFdCe!



USA.gov is the U.S. government's official web portal to all federal, state and local government web resources and services.